Weather History for Custer, SD

Change the Weather History Date:

Tuesday, February 26, 2013

  Actual Average Record
Temperature  
Mean Temperature 25 °F 28 °F  
Max Temperature 35 °F 38 °F 61 °F (1981)
Min Temperature 14 °F 17 °F -18 °F (1962)
Degree Days  
Heating Degree Days 40 37  
Month to date heating degree days 1053 1026  
Since 1 July heating degree days 5462 5761  
Cooling Degree Days 0 0  
Month to date cooling degree days 0 0  
Year to date cooling degree days 0 0  
Moisture  
Dew Point 15 °F    
Average Humidity 62    
Maximum Humidity 73    
Minimum Humidity 51    
Precipitation  
Precipitation T in 0.02 in 0.69 in (1987)
Month to date precipitation 0.13 0.49  
Year to date precipitation 0.93 0.82  
Sea Level Pressure  
Sea Level Pressure 29.93 in    
Wind  
Wind Speed 7 mph (NNW)    
Max Wind Speed 17 mph    
Max Gust Speed 28 mph    
Visibility 10 miles    
Events Snow    
T = Trace of Precipitation, MM = Missing Value Source: NWS Daily Summary

Daily Weather History Graph

Daily Weather History Graph

Search for Another Location

Airport:

Trip Planner

Search our weather history database for the weather conditions in past years. The results will help you decide how hot, cold, wet, or windy it might be!

Date:

Astronomy

Feb. 26, 2013 Rise Set
Actual Time 6:35 AM MST 5:39 PM MST
Civil Twilight 6:06 AM MST 6:08 PM MST
Nautical Twilight 5:33 AM MST 6:41 PM MST
Astronomical Twilight 5:00 AM MST 7:15 PM MST
Moon 7:03 PM MST (2/26) 6:36 AM MST (2/26)
Length of Visible Light 12h 01m
Length of Day
11h 04m
Full, 99% of the Moon is Illuminated
Feb 26
Full
Mar 4
Last Quarter
Mar 11
New
Mar 19
First Quarter
Mar 27
Full

Hourly Weather History & Observations

Time (MST) Temp. Windchill Dew Point Humidity Pressure Visibility Wind Dir Wind Speed Gust Speed Precip Events Conditions
12:53 AM 23.0 °F - 9.0 °F 55% 29.81 in 10.0 mi Calm Calm - N/A   Clear
1:53 AM 24.1 °F 15.2 °F 10.0 °F 55% 29.81 in 10.0 mi WNW 8.1 mph - N/A   Clear
2:53 AM 21.0 °F 16.2 °F 9.0 °F 60% 29.80 in 10.0 mi NW 3.5 mph - N/A   Clear
3:53 AM 19.0 °F 13.9 °F 9.0 °F 65% 29.81 in 10.0 mi North 3.5 mph - N/A   Clear
4:53 AM 15.1 °F - 8.1 °F 74% 29.86 in 10.0 mi Calm Calm - N/A   Clear
5:53 AM 19.0 °F 13.9 °F 8.1 °F 62% 29.87 in 10.0 mi NNW 3.5 mph - N/A   Clear
6:53 AM 19.0 °F 11.1 °F 10.0 °F 68% 29.89 in 10.0 mi WNW 5.8 mph - N/A   Clear
7:53 AM 25.0 °F 16.3 °F 15.1 °F 66% 29.88 in 10.0 mi North 8.1 mph - N/A   Clear
8:53 AM 30.0 °F 21.1 °F 16.0 °F 56% 29.88 in 10.0 mi North 10.4 mph 17.3 mph N/A   Clear
9:53 AM 32.0 °F 24.2 °F 17.1 °F 54% 29.88 in 10.0 mi North 9.2 mph - N/A   Clear
10:54 AM 34.0 °F 26.0 °F 18.0 °F 52% 29.88 in - North 10.4 mph - N/A   Unknown
11:40 AM 33.8 °F 25.8 °F 19.4 °F 56% 29.81 in 10.0 mi NNW 10.4 mph - N/A   Mostly Cloudy
12:53 PM 30.9 °F 23.5 °F 21.0 °F 67% 29.91 in 10.0 mi North 8.1 mph 23.0 mph N/A   Overcast
1:53 PM 30.9 °F 22.8 °F 21.0 °F 67% 29.92 in 6.0 mi North 9.2 mph 18.4 mph 0.00 in Snow Light Snow
2:53 PM 30.0 °F 21.1 °F 19.9 °F 66% 29.96 in 9.0 mi NNE 10.4 mph 23.0 mph 0.00 in Snow Light Snow
3:14 PM 30.2 °F 20.8 °F 19.4 °F 64% 29.86 in 10.0 mi North 11.5 mph 21.9 mph 0.00 in   Overcast
3:33 PM 30.2 °F 20.8 °F 19.4 °F 64% 29.87 in 10.0 mi NNW 11.5 mph 23.0 mph 0.00 in Snow Light Snow
3:53 PM 28.9 °F 19.2 °F 19.0 °F 67% 30.00 in 6.0 mi North 11.5 mph 19.6 mph 0.00 in Snow Light Snow
4:53 PM 28.0 °F 18.1 °F 19.0 °F 69% 30.04 in 9.0 mi North 11.5 mph 26.5 mph 0.00 in Snow Light Snow
5:51 PM 26.6 °F 16.8 °F 17.6 °F 69% 29.92 in 10.0 mi North 10.4 mph 23.0 mph 0.00 in   Overcast
5:53 PM 26.1 °F 16.2 °F 18.0 °F 71% 30.06 in 10.0 mi North 10.4 mph 23.0 mph 0.00 in   Overcast
6:25 PM 26.6 °F 17.5 °F 17.6 °F 69% 29.94 in 10.0 mi North 9.2 mph - N/A   Scattered Clouds
6:53 PM 26.1 °F 16.2 °F 17.1 °F 69% 30.08 in 10.0 mi NNW 10.4 mph 17.3 mph N/A   Mostly Cloudy
7:53 PM 26.1 °F 21.9 °F 16.0 °F 66% 30.08 in 10.0 mi Variable 3.5 mph 19.6 mph N/A   Overcast
8:53 PM 26.1 °F 17.6 °F 16.0 °F 66% 30.08 in 10.0 mi NNW 8.1 mph 19.6 mph N/A   Overcast
9:53 PM 25.0 °F 18.1 °F 14.0 °F 63% 30.08 in 10.0 mi Variable 5.8 mph 16.1 mph N/A   Overcast
10:53 PM 24.1 °F 18.2 °F 12.9 °F 62% 30.09 in 10.0 mi Variable 4.6 mph - N/A   Overcast
11:53 PM 24.1 °F 13.7 °F 10.0 °F 55% 30.09 in 10.0 mi NW 10.4 mph 19.6 mph N/A   Overcast